Weather History for Perry, FL

Change the Weather History Date:

Sunday, March 18, 2012

  Actual Average (KCTY) Record (KCTY)
Temperature  
Mean Temperature 70 °F 63 °F  
Max Temperature 86 °F 76 °F 86 °F (2012)
Min Temperature 57 °F 49 °F 36 °F (2005)
Degree Days  
Heating Degree Days 0 4  
Month to date heating degree days 95  
Since 1 July heating degree days 1215  
Cooling Degree Days 6 1  
Month to date cooling degree days 18  
Year to date cooling degree days 45  
Growing Degree Days 20 (Base 50)    
Moisture  
Dew Point 60 °F    
Average Humidity 74    
Maximum Humidity 93    
Minimum Humidity 43    
Precipitation  
Precipitation 0.00 in 0.14 in 1.26 in (1998)
Month to date precipitation 2.41  
Year to date precipitation 9.72  
Sea Level Pressure  
Sea Level Pressure 30.20 in    
Wind  
Wind Speed 2 mph (SSW)    
Max Wind Speed 10 mph    
Max Gust Speed -    
T = Trace of Precipitation, MM = Missing Value Source: NWS Daily Summary

Daily Weather History Graph

Daily Weather History Graph

Search for Another Location

Airport:

Trip Planner

Search our weather history database for the weather conditions in past years. The results will help you decide how hot, cold, wet, or windy it might be!

Date:

Astronomy

Mar. 18, 2012 Rise Set
Actual Time 7:39 AM EDT 7:44 PM EDT
Civil Twilight 7:16 AM EDT 8:08 PM EDT
Nautical Twilight 6:48 AM EDT 8:36 PM EDT
Astronomical Twilight 6:20 AM EDT 9:04 PM EDT
Moon 5:03 AM EDT (3/18) 4:23 PM EDT (3/18)
Length of Visible Light 12h 52m
Length of Day
12h 04m
Waning Crescent, 15% of the Moon is Illuminated
Mar 18
Waning Crescent
Mar 22
New
Mar 30
First Quarter
Apr 6
Full
Apr 13
Last Quarter

Hourly Weather History & Observations

Time (EDT) Temp. Heat Index Dew Point Humidity Pressure Visibility Wind Dir Wind Speed Gust Speed Precip Events Conditions
12:53 AM 64.9 °F - 61.0 °F 87% 30.22 in - Calm Calm - N/A   Unknown
1:53 AM 63.0 °F - 60.1 °F 90% 30.21 in - East 3.5 mph - N/A   Unknown
2:53 AM 62.1 °F - 59.0 °F 90% 30.20 in - Calm Calm - N/A   Unknown
3:53 AM 59.0 °F - 57.0 °F 93% 30.20 in - Calm Calm - N/A   Unknown
4:53 AM 57.9 °F - 55.9 °F 93% 30.19 in - Calm Calm - N/A   Unknown
5:53 AM 57.9 °F - 55.0 °F 90% 30.19 in - Calm Calm - N/A   Unknown
6:53 AM 57.9 °F - 55.0 °F 90% 30.21 in - Calm Calm - N/A   Unknown
7:53 AM 57.0 °F - 55.0 °F 93% 30.23 in - Calm Calm - N/A   Unknown
8:53 AM 63.0 °F - 59.0 °F 87% 30.25 in - Calm Calm - N/A   Unknown
9:53 AM 69.1 °F - 61.0 °F 75% 30.27 in - Calm Calm - N/A   Unknown
10:53 AM 75.0 °F - 63.0 °F 66% 30.27 in - SE 3.5 mph - N/A   Unknown
11:53 AM 78.1 °F - 62.1 °F 58% 30.27 in - East 4.6 mph - N/A   Unknown
12:53 PM 80.1 °F 81.1 °F 61.0 °F 52% 30.25 in - Variable 3.5 mph - N/A   Unknown
1:53 PM 84.9 °F 84.8 °F 60.1 °F 43% 30.23 in - Calm Calm - N/A   Unknown
2:53 PM 84.0 °F 84.4 °F 61.0 °F 46% 30.19 in - SW 8.1 mph - N/A   Unknown
3:53 PM 84.0 °F 84.5 °F 62.1 °F 47% 30.17 in - West 9.2 mph - N/A   Unknown
4:53 PM 82.0 °F 82.7 °F 61.0 °F 49% 30.16 in - SSW 10.4 mph - N/A   Unknown
5:53 PM 80.1 °F 81.1 °F 61.0 °F 52% 30.15 in - SW 10.4 mph - N/A   Unknown
6:53 PM 77.0 °F - 61.0 °F 58% 30.15 in - SW 8.1 mph - N/A   Unknown
7:53 PM 71.1 °F - 61.0 °F 70% 30.15 in - SW 5.8 mph - N/A   Unknown
8:53 PM 66.9 °F - 61.0 °F 81% 30.17 in - Calm Calm - N/A   Unknown
9:53 PM 66.0 °F - 61.0 °F 84% 30.17 in - Calm Calm - N/A   Unknown
10:53 PM 63.0 °F - 60.1 °F 90% 30.18 in - Calm Calm - N/A   Unknown
11:53 PM 63.0 °F - 59.0 °F 87% 30.19 in - Calm Calm - N/A   Unknown